Satellite: NOAA-10 Catalog number: 16969 Epoch time: 11187.69600222 Element set: 0557 Inclination: 098.6187 deg RA of node: 217.2165 deg Eccentricity: 0.0012367 Arg of perigee: 164.3799 deg Mean anomaly: 195.7764 deg Mean motion: 14.27467755 rev/day Decay rate: 6.1e-07 rev/day^2 Epoch rev: 29043 Checksum: 338
Satellite: NOAA-11 Catalog number: 19531 Epoch time: 11187.64714265 Element set: 0558 Inclination: 098.7523 deg RA of node: 274.7430 deg Eccentricity: 0.0011878 Arg of perigee: 130.6749 deg Mean anomaly: 229.5469 deg Mean motion: 14.14920738 rev/day Decay rate: 3.11e-06 rev/day^2 Epoch rev: 17550 Checksum: 317
Satellite: NOAA-12 Catalog number: 21263 Epoch time: 11187.94748304 Element set: 0065 Inclination: 098.7494 deg RA of node: 205.7573 deg Eccentricity: 0.0013187 Arg of perigee: 126.5718 deg Mean anomaly: 233.6677 deg Mean motion: 14.25723294 rev/day Decay rate: 7.9e-07 rev/day^2 Epoch rev: 04722 Checksum: 320
Satellite: MET-3/5 Catalog number: 21655 Epoch time: 11187.88575310 Element set: 0153 Inclination: 082.5552 deg RA of node: 036.8559 deg Eccentricity: 0.0014664 Arg of perigee: 106.2951 deg Mean anomaly: 253.9752 deg Mean motion: 13.17027545 rev/day Decay rate: 5.1e-07 rev/day^2 Epoch rev: 95631 Checksum: 308
Satellite: MET-2/21 Catalog number: 22782 Epoch time: 11188.43173589 Element set: 141 Inclination: 082.5502 deg RA of node: 306.8157 deg Eccentricity: 0.0023610 Arg of perigee: 045.0542 deg Mean anomaly: 315.2534 deg Mean motion: 13.83660161 rev/day Decay rate: 1.0e-08 rev/day^2 Epoch rev: 90135 Checksum: 264
Satellite: OKEAN-4 Catalog number: 23317 Epoch time: 11187.93260821 Element set: 0649 Inclination: 082.5396 deg RA of node: 354.6976 deg Eccentricity: 0.0023672 Arg of perigee: 056.0797 deg Mean anomaly: 304.2664 deg Mean motion: 14.83099528 rev/day Decay rate: 2.49e-06 rev/day^2 Epoch rev: 90347 Checksum: 337
Satellite: NOAA-14 Catalog number: 23455 Epoch time: 11187.92194491 Element set: 0552 Inclination: 098.8526 deg RA of node: 270.3623 deg Eccentricity: 0.0008696 Arg of perigee: 220.7448 deg Mean anomaly: 139.3074 deg Mean motion: 14.13823928 rev/day Decay rate: -.00000000 rev/day^2 Epoch rev: 85186 Checksum: 310
Satellite: NOAA-15 Catalog number: 25338 Epoch time: 11188.38815959 Element set: 875 Inclination: 098.6550 deg RA of node: 174.2538 deg Eccentricity: 0.0011393 Arg of perigee: 038.2262 deg Mean anomaly: 321.9729 deg Mean motion: 14.24929571 rev/day Decay rate: 7.0e-07 rev/day^2 Epoch rev: 68360 Checksum: 335
Satellite: RESURS Catalog number: 25394 Epoch time: 11188.55112009 Element set: 838 Inclination: 098.3005 deg RA of node: 190.4518 deg Eccentricity: 0.0001435 Arg of perigee: 127.9077 deg Mean anomaly: 232.2230 deg Mean motion: 14.24235066 rev/day Decay rate: -2.8e-07 rev/day^2 Epoch rev: 67520 Checksum: 271
Satellite: FENGYUN1 Catalog number: 25730 Epoch time: 11187.91745196 Element set: 0382 Inclination: 098.8165 deg RA of node: 148.6783 deg Eccentricity: 0.0022058 Arg of perigee: 260.2202 deg Mean anomaly: 099.6472 deg Mean motion: 14.08672967 rev/day Decay rate: 9.75e-06 rev/day^2 Epoch rev: 62584 Checksum: 338
Satellite: OKEAN-0 Catalog number: 25860 Epoch time: 11188.52967319 Element set: 353 Inclination: 097.8850 deg RA of node: 154.4157 deg Eccentricity: 0.0000738 Arg of perigee: 040.5042 deg Mean anomaly: 319.6219 deg Mean motion: 14.73800901 rev/day Decay rate: 8.9e-07 rev/day^2 Epoch rev: 64365 Checksum: 306
Satellite: NOAA-16 Catalog number: 26536 Epoch time: 11188.26325247 Element set: 357 Inclination: 099.1384 deg RA of node: 219.2124 deg Eccentricity: 0.0010229 Arg of perigee: 340.8506 deg Mean anomaly: 019.2259 deg Mean motion: 14.12629897 rev/day Decay rate: 5.3e-07 rev/day^2 Epoch rev: 55619 Checksum: 311
Satellite: NOAA-17 Catalog number: 27453 Epoch time: 11187.77622092 Element set: 0345 Inclination: 098.3779 deg RA of node: 226.5869 deg Eccentricity: 0.0012801 Arg of perigee: 092.0707 deg Mean anomaly: 268.1920 deg Mean motion: 14.24289649 rev/day Decay rate: 2.09e-06 rev/day^2 Epoch rev: 46944 Checksum: 337
Satellite: NOAA-18 Catalog number: 28654 Epoch time: 11187.80650873 Element set: 0825 Inclination: 098.9969 deg RA of node: 139.0033 deg Eccentricity: 0.0015253 Arg of perigee: 051.5904 deg Mean anomaly: 308.6645 deg Mean motion: 14.11488424 rev/day Decay rate: -1.01e-06 rev/day^2 Epoch rev: 31569 Checksum: 319
Satellite: NOAA-19 Catalog number: 33591 Epoch time: 11187.80801224 Element set: 0016 Inclination: 098.8270 deg RA of node: 127.6335 deg Eccentricity: 0.0013255 Arg of perigee: 282.2397 deg Mean anomaly: 077.7287 deg Mean motion: 14.11182569 rev/day Decay rate: 3.03e-06 rev/day^2 Epoch rev: 12415 Checksum: 296
/EX SB KEPS @ AMSAT $ORB11188.M Orbital Elements 11188.MISC
HR AMSAT ORBITAL ELEMENTS FOR MANNED AND MISCELLANEOUS SATELLITES FROM WA5QGD FORT WORTH,TX July 7, 2011 Send Subscribe/unsubscribe to KEPS at http://www.amsat.org/mailman/listinfo/keps BID: ORB11188.M TO ALL RADIO AMATEURS BT
Satellite: HUBBLE Catalog number: 20580 Epoch time: 11187.59487351 Element set: 793 Inclination: 028.4708 deg RA of node: 249.6712 deg Eccentricity: 0.0003231 Arg of perigee: 329.0398 deg Mean anomaly: 031.0007 deg Mean motion: 15.01414384 rev/day Decay rate: 5.84e-06 rev/day^2 Epoch rev: 96257 Checksum: 294
Satellite: ISS Catalog number: 25544 Epoch time: 11189.04362252 Element set: 670 Inclination: 051.6415 deg RA of node: 055.6573 deg Eccentricity: 0.0010868 Arg of perigee: 302.0364 deg Mean anomaly: 219.4492 deg Mean motion: 15.59797364 rev/day Decay rate: 4.5836e-04 rev/day^2 Epoch rev: 72416 Checksum: 311
Satellite: CO-58 Catalog number: 28895 Epoch time: 11187.59589457 Element set: 0917 Inclination: 097.9630 deg RA of node: 063.2317 deg Eccentricity: 0.0017953 Arg of perigee: 156.5676 deg Mean anomaly: 203.6371 deg Mean motion: 14.60127534 rev/day Decay rate: 3.29e-06 rev/day^2 Epoch rev: 30307 Checksum: 341
Satellite: FALCON Catalog number: 30776 Epoch time: 11187.55095983 Element set: 0123 Inclination: 035.4334 deg RA of node: 229.2319 deg Eccentricity: 0.0001805 Arg of perigee: 273.3208 deg Mean anomaly: 086.7302 deg Mean motion: 15.04723940 rev/day Decay rate: 9.26e-06 rev/day^2 Epoch rev: 23796 Checksum: 294
Satellite: MAST Catalog number: 31126 Epoch time: 11187.92715400 Element set: 0203 Inclination: 097.8921 deg RA of node: 214.0390 deg Eccentricity: 0.0095963 Arg of perigee: 109.1774 deg Mean anomaly: 251.9841 deg Mean motion: 14.53766701 rev/day Decay rate: 1.88e-06 rev/day^2 Epoch rev: 22395 Checksum: 297
Satellite: CAPE1 Catalog number: 31130 Epoch time: 11188.55180549 Element set: 217 Inclination: 097.8984 deg RA of node: 211.3639 deg Eccentricity: 0.0103548 Arg of perigee: 117.7980 deg Mean anomaly: 243.3698 deg Mean motion: 14.52414795 rev/day Decay rate: 5.2e-07 rev/day^2 Epoch rev: 22359 Checksum: 314
Satellite: COMPASS Catalog number: 32787 Epoch time: 11187.71729790 Element set: 0032 Inclination: 097.8467 deg RA of node: 251.1707 deg Eccentricity: 0.0016889 Arg of perigee: 111.3746 deg Mean anomaly: 248.9265 deg Mean motion: 14.82477552 rev/day Decay rate: 3.70e-06 rev/day^2 Epoch rev: 17245 Checksum: 330
Satellite: AAUSAT2 Catalog number: 32788 Epoch time: 11186.86867418 Element set: 0021 Inclination: 097.8478 deg RA of node: 250.5686 deg Eccentricity: 0.0016369 Arg of perigee: 114.2480 deg Mean anomaly: 246.0464 deg Mean motion: 14.82665175 rev/day Decay rate: 4.86e-06 rev/day^2 Epoch rev: 17234 Checksum: 333
Satellite: DO-64 Catalog number: 32789 Epoch time: 11187.68172636 Element set: 0038 Inclination: 097.8562 deg RA of node: 252.4072 deg Eccentricity: 0.0016573 Arg of perigee: 110.1455 deg Mean anomaly: 250.1552 deg Mean motion: 14.83165014 rev/day Decay rate: 1.421e-05 rev/day^2 Epoch rev: 17247 Checksum: 296
Satellite: CO-66 Catalog number: 32791 Epoch time: 11187.73809645 Element set: 0025 Inclination: 097.8465 deg RA of node: 251.1254 deg Eccentricity: 0.0017476 Arg of perigee: 110.7202 deg Mean anomaly: 249.5919 deg Mean motion: 14.82161675 rev/day Decay rate: 5.64e-06 rev/day^2 Epoch rev: 17240 Checksum: 317
Satellite: RS-30 Catalog number: 32953 Epoch time: 11188.43067285 Element set: 881 Inclination: 082.5018 deg RA of node: 150.1391 deg Eccentricity: 0.0019078 Arg of perigee: 347.8156 deg Mean anomaly: 012.2461 deg Mean motion: 12.43014010 rev/day Decay rate: 1.0e-07 rev/day^2 Epoch rev: 14160 Checksum: 255
Satellite: TACSAT-3 Catalog number: 35001 Epoch time: 11187.91000131 Element set: 0636 Inclination: 040.4543 deg RA of node: 052.9196 deg Eccentricity: 0.0022955 Arg of perigee: 353.2435 deg Mean anomaly: 006.8076 deg Mean motion: 15.49572501 rev/day Decay rate: 1.1533e-04 rev/day^2 Epoch rev: 12014 Checksum: 255
Satellite: PHARMSAT Catalog number: 35002 Epoch time: 11188.78560602 Element set: 591 Inclination: 040.4690 deg RA of node: 045.4631 deg Eccentricity: 0.0024929 Arg of perigee: 007.3463 deg Mean anomaly: 352.7738 deg Mean motion: 15.49086808 rev/day Decay rate: 9.798e-05 rev/day^2 Epoch rev: 12030 Checksum: 304
Satellite: HAWKSAT1 Catalog number: 35003 Epoch time: 11187.91116398 Element set: 0679 Inclination: 040.4542 deg RA of node: 018.5283 deg Eccentricity: 0.0021123 Arg of perigee: 017.4776 deg Mean anomaly: 342.6766 deg Mean motion: 15.68163341 rev/day Decay rate: 6.3812e-04 rev/day^2 Epoch rev: 12052 Checksum: 286
Satellite: CP6 Catalog number: 35004 Epoch time: 11187.89753893 Element set: 0681 Inclination: 040.4528 deg RA of node: 008.3502 deg Eccentricity: 0.0018050 Arg of perigee: 015.6239 deg Mean anomaly: 344.5146 deg Mean motion: 15.76945206 rev/day Decay rate: 1.18591e-03 rev/day^2 Epoch rev: 12062 Checksum: 298
